Terminal Aerodrome Forecast
Issued by NWS Wilmington, OH

Current Version | Previous Version | Graphics & Text | Print | Product List | Glossary On
Versions: 1 2 3 4 5 6 7 8 9 10 11 12 13 14 15 16 17 18 19 20 21 22 23 24 25 26 27 28
000
FTUS41 KILN 010244 AAA
TAFILN
TAF AMD
KILN 010244Z 0103/0124 14008KT 4SM -SHRA OVC012
      TEMPO 0103/0107 2SM SHRA
     FM010800 16006KT 4SM BR OVC006
     FM011400 23006KT P6SM BKN012
     FM011800 25006KT P6SM FEW025 BKN035
     FM012100 27005KT P6SM VCSH SCT025 BKN040=

USA.gov is the U.S. government's official web portal to all federal, state and local government web resources and services.